Location: Crayja
(6.2254°N, 10.6273°W)
Time: 18:06:29
(UTC+00:00)

Cosmos 2221 - Pass Details

Date: 17 February 2020
Orbit: 593 x 615 km, 82.5° (Epoch: 03 April)

Event Time Altitude Azimuth Distance (km) Brightness Sun altitude
Rises 05:40:35 0° 193° (SSW) 2,824 5.9 -19.8°
Reaches altitude 10° 05:42:49 10° 198° (SSW) 1,921 5.0 -19.3°
Maximum altitude 05:46:57 52° 274° (W) 739 2.5 -18.3°
Drops below altitude 10° 05:51:04 10° 351° (N) 1,918 4.9 -17.3°
Sets 05:53:19 0° 356° (N) 2,820 5.8 -16.7°
